{"data":{"norad_id":58803,"epoch":"2026-09-19T02:27:05.131872Z","epoch_age_seconds":273369,"freshness":"STALE","line1":"1 58803U 24012S   26262.10214273  .00026270  00000+0  96456-3 0  9990","line2":"2 58803  43.0052 153.1437 0000734 214.4075 145.6729 15.27450462150816","mean_motion":15.27450462,"eccentricity":7.34e-5,"inclination_deg":43.0052,"raan_deg":153.1437,"arg_perigee_deg":214.4075,"mean_anomaly_deg":145.6729,"bstar":0.00096456,"rev_number":15081,"period_min":94.274743163487,"perigee_km":482.93336729293,"apogee_km":483.94064635713,"semimajor_km":6861.574006825,"source":"CELESTRAK","updated_at":"2026-09-21T09:00:33.981462Z"}}